This is the latest recevied weather packets stored in our database for station/object N1UNH. If no packets are shown the sender has not sent any weather packets the latest 10 day(s).
| Time | Temp. | Humidity | Pressure | Rain* | Wind** | Luminosity | Snow |
|---|---|---|---|---|---|---|---|
| 1777925390 | 22.22° C | 28% | 1011.2 hPa | 0 mm | - | 593 W/m² | - |
| 1777925087 | 22.22° C | 28% | 1011.1 hPa | 0 mm | - | 191 W/m² | - |
| 1777924783 | 22.22° C | 28% | 1011.1 hPa | 0 mm | - | 703 W/m² | - |
| 1777924479 | 21.67° C | 30% | 1011.3 hPa | 0 mm | - | 706 W/m² | - |
| 1777924176 | 22.22° C | 28% | 1011 hPa | 0 mm | - | 138 W/m² | - |
| 1777923872 | 22.22° C | 28% | 1011.1 hPa | 0 mm | - | 172 W/m² | - |
| 1777923568 | 21.67° C | 29% | 1011.1 hPa | 0 mm | - | 718 W/m² | - |
| 1777923265 | 22.22° C | 28% | 1011.1 hPa | 0 mm | - | 132 W/m² | - |
| 1777922964 | 21.67° C | 31% | 1011.2 hPa | 0 mm | - | 172 W/m² | - |
| 1777922661 | 20.56° C | 30% | 1011.2 hPa | 0 mm | - | 595 W/m² | - |
| 1777922360 | 20.56° C | 30% | 1011.2 hPa | 0 mm | - | 134 W/m² | - |
| 1777922057 | 21.11° C | 29% | 1011.3 hPa | 0 mm | - | 144 W/m² | - |
| 1777921752 | 20.56° C | 30% | 1011.4 hPa | 0 mm | - | 791 W/m² | - |
| 1777921448 | 21.11° C | 30% | 1011.3 hPa | 0 mm | - | 222 W/m² | - |
| 1777921145 | 21.11° C | 30% | 1011.3 hPa | 0 mm | - | 191 W/m² | - |
| 1777920842 | 22.22° C | 27% | 1011.3 hPa | 0 mm | - | 258 W/m² | - |
| 1777920538 | 22.22° C | 29% | 1011.2 hPa | 0 mm | - | 890 W/m² | - |
| 1777920234 | 21.11° C | 28% | 1011.2 hPa | 0 mm | - | 908 W/m² | - |
| 1777919930 | 21.11° C | 29% | 1011.4 hPa | 0 mm | - | 879 W/m² | - |
| 1777919628 | 20.56° C | 29% | 1011.2 hPa | 0 mm | - | 928 W/m² | - |
| 1777919325 | 20.56° C | 32% | 1011.5 hPa | 0 mm | - | 627 W/m² | - |
| 1777919023 | 20° C | 32% | 1011.4 hPa | 0 mm | - | 223 W/m² | - |
| 1777918719 | 19.44° C | 31% | 1011.7 hPa | 0 mm | - | 168 W/m² | - |
| 1777918417 | 20° C | 31% | 1011.6 hPa | 0 mm | - | 142 W/m² | - |
| 1777918116 | 20° C | 34% | 1011.6 hPa | 0 mm | - | 126 W/m² | - |
* Rain latest hour (hover to see other rain measurements)
** Current wind speed in m/s (hover to see current wind gust speed)